Estación de Maule

Ultimos registro cada 15 minutos 20
Estación Fecha / Hora Temperatura Humedad Lluvia Velocidad Dirección Radiación Presion
20 Maule 08-05-2026 04:45 4,9 94 0 0 185 0 1023,7
19 Maule 08-05-2026 04:30 4,9 96 0 0 185 0 1023,6
18 Maule 08-05-2026 04:15 3,8 93 0 0 185 0 1023,5
17 Maule 08-05-2026 04:00 4,1 93 0 0 185 0 1023,6
16 Maule 08-05-2026 03:45 4,6 93 0 0 185 0 1023,7
15 Maule 08-05-2026 03:30 4,6 95 0 0 185 0 1023,5
14 Maule 08-05-2026 03:15 3,8 94 0 0 185 0 1023,9
13 Maule 08-05-2026 03:00 3,6 92 0 0 185 0 1024,3
12 Maule 08-05-2026 02:45 3,7 92 0 0 185 0 1024,7
11 Maule 08-05-2026 02:30 3,9 91 0 0 185 0 1024,8
10 Maule 08-05-2026 02:15 4,6 90 0 0,4 185 0 1025
9 Maule 08-05-2026 02:00 4,9 90 0 0,4 185 0 1025,2
8 Maule 08-05-2026 01:45 5,4 88 0 0 185 0 1025,1
7 Maule 08-05-2026 01:30 6,1 87 0 0 185 0 1025
6 Maule 08-05-2026 01:15 6,5 87 0 0 185 0 1025,2
5 Maule 08-05-2026 01:00 6,8 86 0 0 185 0 1025,4
4 Maule 08-05-2026 00:45 7 85 0 0 185 0 1025,6
3 Maule 08-05-2026 00:30 6,9 86 0 0,4 185 0 1025,7
2 Maule 08-05-2026 00:15 7 85 0 0 185 0 1025,7
1 Maule 08-05-2026 00:00 7,5 86 0 0 185 0 1026,1